Theta_e
307 305 308 306 305 294 296 298 295 297 300 299 295 298 299 299 295 290 295 299 297 302 305 310 315 316 317 320 322 322 322 324 325 326 327 327 329 329 330 331 331 332 333 335 336 337 339 340 341 341 343 346 348 350 351 351 352 353 354 355 354 354 354
307 310 308 308 308 302 297 296 296 301 303 300 296 287 291 290 287 289 296 294 293 298 293 305 309 312 315 317 320 322 322 323 323 325 327 328 328 330 331 331 333 333 334 335 336 337 339 341 341 342 344 346 348 350 352 351 352 352 354 355 355 355 354
306 309 308 305 308 308 302 298 301 298 291 291 293 291 287 286 287 287 291 294 295 296 296 304 305 310 312 315 318 320 321 322 323 324 326 328 329 330 331 331 332 333 334 335 336 336 339 341 343 344 345 346 348 350 352 353 352 353 354 356 356 356 356
306 306 304 298 301 306 306 302 299 301 296 295 291 292 290 291 285 289 287 293 290 299 299 303 304 309 313 314 317 319 321 322 323 324 325 327 328 329 330 331 332 333 334 335 337 337 338 340 342 344 345 347 347 349 351 353 354 354 355 355 356 355 356
303 298 300 300 301 300 300 299 298 300 299 298 297 296 294 290 287 284 286 288 292 298 304 306 307 307 313 315 316 319 321 323 324 325 325 326 328 329 329 331 333 333 334 336 337 338 339 341 344 345 346 347 348 350 351 353 353 353 354 355 356 356 357
296 299 303 304 304 305 303 301 299 299 294 292 290 288 296 294 291 285 287 288 290 300 308 309 308 308 311 315 317 318 321 323 324 325 326 327 327 329 330 331 333 334 335 336 337 339 340 341 343 344 346 347 348 349 351 353 354 354 354 355 355 356 356
297 300 304 307 308 307 306 304 301 301 295 293 290 286 287 295 292 298 292 289 293 303 306 308 310 309 311 314 317 318 320 322 324 325 326 327 329 329 330 331 332 333 335 337 338 338 339 340 343 344 346 347 348 349 351 353 354 355 356 356 357 357 356
302 303 304 305 307 307 304 304 305 302 297 297 293 290 290 291 291 291 290 291 289 300 308 308 308 313 312 314 316 317 319 322 324 325 326 326 327 329 331 332 333 333 335 336 338 338 338 340 342 344 345 347 348 349 351 353 354 355 357 357 358 357 357
292 298 299 299 304 305 302 301 303 304 303 300 296 297 296 294 291 292 289 288 289 300 309 308 307 311 314 313 314 317 319 323 324 325 326 326 328 329 330 331 331 332 333 335 338 339 338 340 342 344 345 346 347 348 350 352 354 356 357 359 358 358 357
286 287 288 291 295 299 301 302 302 303 302 299 296 294 293 287 292 293 289 290 291 299 306 306 308 307 306 308 316 317 318 322 325 325 326 327 327 328 329 330 331 330 332 335 337 339 339 340 342 344 345 346 347 348 350 352 354 356 357 359 359 358 357
293 294 294 298 302 300 298 299 300 301 303 302 300 296 292 292 289 293 290 294 295 298 303 302 304 307 305 305 312 316 316 321 325 326 326 327 327 328 329 330 331 331 331 334 336 339 340 340 342 344 345 346 347 348 349 351 353 356 357 358 358 358 357
299 300 299 302 303 300 301 299 299 301 301 301 299 296 294 295 292 291 294 297 299 299 301 302 304 305 305 305 307 314 316 318 323 324 325 333 326 327 329 329 329 329 331 333 335 337 339 340 342 343 345 346 347 347 348 350 352 354 357 357 358 358 357
301 301 302 302 303 301 301 302 300 300 301 301 298 298 296 297 294 294 294 297 298 298 301 303 304 305 305 306 310 314 317 318 321 324 324 324 325 326 327 328 328 329 330 332 334 335 337 339 340 342 344 345 346 347 348 349 351 353 356 356 357 357 357
300 301 301 303 301 302 301 301 301 301 301 301 301 300 299 298 297 297 297 299 301 303 303 305 307 308 309 309 313 317 317 318 319 320 322 325 325 325 326 327 328 329 331 333 334 335 336 338 339 341 343 344 346 346 347 348 350 352 354 355 356 357 357
298 301 302 303 302 301 300 300 301 302 301 302 302 301 300 300 298 299 297 297 299 301 304 306 307 308 314 313 314 317 319 319 319 319 321 324 326 326 326 327 328 330 331 332 334 335 335 337 339 341 343 344 346 347 347 348 349 351 353 354 355 356 356
295 300 301 301 302 301 299 298 299 299 301 299 300 300 300 299 297 298 298 296 296 300 303 306 306 309 309 309 312 318 321 326 328 323 321 323 325 326 326 327 328 329 331 332 334 335 336 338 340 341 343 344 345 346 347 347 349 351 352 353 354 355 357
293 299 300 300 300 299 296 297 299 300 299 301 302 303 305 304 302 298 295 295 299 303 307 305 304 306 306 308 310 313 320 326 329 326 325 324 325 326 328 328 329 331 332 334 335 337 339 340 342 343 344 344 345 347 347 348 349 349 351 352 353 354 356
293 299 299 299 295 290 293 302 303 303 301 301 301 300 300 303 303 300 303 303 302 302 303 304 303 303 304 306 309 312 316 321 327 327 328 327 328 329 330 331 332 333 335 336 338 340 342 343 344 345 346 346 347 348 349 349 348 348 349 351 352 354 355
293 297 300 296 290 291 301 305 305 305 304 304 302 305 306 305 302 306 310 309 305 305 305 306 309 309 312 315 321 322 319 316 323 328 329 329 329 331 332 332 333 334 336 338 339 340 342 345 346 346 346 347 348 348 349 348 348 348 348 349 351 353 354
296 295 295 290 291 302 308 305 307 308 305 304 306 309 315 317 315 311 310 310 312 314 315 313 312 316 321 324 326 326 327 321 320 321 321 326 328 327 330 334 335 335 336 337 339 340 343 345 347 348 347 348 348 348 349 349 348 348 348 349 350 352 353
290 293 294 295 302 303 303 305 307 305 302 302 303 304 309 317 319 315 314 315 317 318 319 317 315 313 315 319 322 330 333 331 330 324 319 318 320 323 323 332 337 339 340 340 341 342 343 344 347 349 349 349 349 349 348 349 348 348 348 348 349 351 353
295 290 291 294 294 292 296 303 310 313 310 311 315 314 309 317 320 319 320 318 318 318 318 317 317 314 311 313 316 326 335 336 336 338 337 334 324 317 322 327 331 337 341 342 343 346 346 346 347 349 350 350 349 348 348 349 348 348 347 347 349 350 352
295 293 289 290 290 291 298 306 311 314 317 321 317 312 305 315 319 319 323 322 322 321 320 319 316 310 307 311 317 329 334 335 336 336 337 340 340 335 323 321 329 335 338 340 343 345 346 348 350 350 350 350 350 349 349 349 349 348 348 348 349 350 351
296 291 290 288 293 296 302 311 314 312 312 312 307 297 301 313 319 323 323 322 322 322 322 324 322 317 313 315 322 332 334 335 335 336 336 337 339 342 345 345 334 330 339 341 342 341 344 347 351 352 351 350 349 349 349 350 349 348 349 349 350 351 352
297 297 291 293 299 309 313 313 315 314 314 308 297 290 305 317 323 328 327 326 325 326 325 325 322 322 323 327 331 333 333 333 333 336 338 337 338 338 340 341 344 341 329 335 341 343 343 345 348 350 352 351 350 349 350 350 349 350 351 351 351 351 352
295 295 291 290 296 308 314 316 318 318 309 296 293 309 319 326 327 329 330 329 329 328 327 326 326 327 330 332 331 331 331 331 332 334 335 335 336 339 339 341 339 340 342 341 340 344 346 349 351 351 350 348 348 348 349 350 351 353 353 352 351 351 352
301 299 293 290 289 302 316 315 314 315 303 301 316 324 326 328 327 328 328 328 328 328 325 327 326 327 328 329 329 329 330 330 331 332 333 333 333 334 335 335 338 341 338 339 339 340 344 346 349 351 350 348 348 348 348 350 353 353 353 353 353 353 353
296 297 295 294 306 311 316 314 304 315 316 323 326 325 322 326 327 326 326 326 327 327 326 325 325 326 327 327 328 329 330 331 332 333 333 334 333 333 333 334 335 339 338 338 338 340 342 342 343 345 350 348 347 347 349 351 354 355 354 356 357 356 355
303 300 304 311 314 314 316 316 318 320 323 326 326 326 325 324 324 325 323 323 324 326 326 325 326 326 327 327 328 328 329 330 331 331 332 333 334 333 332 332 334 335 335 335 337 337 338 339 341 342 344 346 344 348 347 350 355 358 359 359 359 358 358
314 314 314 317 315 314 316 317 317 317 319 321 322 322 319 320 321 321 319 319 320 320 321 321 322 325 327 328 328 329 329 330 330 331 331 332 333 334 334 333 333 334 334 336 337 336 337 339 339 339 342 344 345 344 344 347 350 353 357 359 358 358 359
301 295 312 314 312 314 316 315 316 316 316 316 316 315 314 314 315 315 315 315 315 315 316 316 316 317 322 325 327 329 329 330 330 330 330 330 331 331 332 333 334 333 333 334 335 335 335 337 339 340 340 339 338 338 341 347 350 353 354 355 355 355 357
303 303 311 315 318 318 318 317 315 314 314 313 314 314 314 314 315 315 314 315 314 315 314 314 313 313 315 317 319 322 324 326 327 329 330 330 330 331 332 333 335 335 334 333 334 334 335 337 338 339 340 341 341 341 343 345 347 347 350 351 352 352 352
309 312 314 315 317 316 316 317 318 318 317 315 313 314 315 314 313 313 314 314 314 314 313 314 314 313 313 314 315 316 317 319 321 323 325 328 330 331 332 333 335 333 332 331 331 331 332 334 335 335 338 341 341 340 341 342 343 344 343 341 345 346 344
302 303 306 311 305 306 312 316 317 317 318 317 315 314 313 312 312 313 312 313 314 313 313 313 313 312 313 314 316 316 317 317 319 321 323 325 328 331 333 333 332 332 331 330 330 330 331 333 333 333 335 339 342 345 342 345 345 342 340 339 339 339 338
300 311 315 314 314 313 316 317 318 318 318 317 315 313 312 312 312 312 311 310 311 311 312 312 312 312 314 315 316 316 317 317 319 321 323 324 327 330 333 332 330 330 330 332 331 331 332 334 334 335 336 339 340 342 341 341 343 343 340 337 336 336 335
313 317 317 316 313 312 316 318 319 319 321 319 316 315 314 313 312 312 311 311 310 310 311 311 313 313 315 316 317 315 315 316 317 320 323 325 326 328 331 333 333 331 331 330 330 331 332 333 333 334 337 339 338 341 341 341 340 338 338 336 334 334 334
312 318 318 318 317 317 320 321 321 322 322 321 317 317 317 316 316 315 312 312 312 311 310 310 312 314 316 317 317 316 315 315 317 319 322 324 325 325 328 330 333 334 334 334 333 333 333 334 336 337 337 338 340 340 341 341 339 336 336 336 334 334 334
Wind_Speed
14 9 7 6 10 8 6 7 15 9 8 5 2 3 2 1 1 10 3 3 5 6 3 5 11 17 18 17 19 19 17 16 15 16 17 18 18 18 18 18 18 19 19 20 20 20 19 18 19 20 20 20 21 20 19 20 20 18 19 19 19 17 16
12 16 9 10 10 7 5 11 5 3 5 6 6 7 1 6 6 5 4 11 3 1 9 4 5 10 15 15 17 18 18 18 18 17 18 18 19 19 20 20 20 21 20 21 20 19 20 21 22 21 21 20 19 19 20 21 19 20 19 18 18 17 17
11 11 12 11 12 12 11 8 6 8 4 8 3 3 9 7 9 3 3 4 5 9 7 1 6 12 14 15 15 15 17 18 20 20 20 19 18 18 18 19 18 18 19 19 20 20 21 22 22 22 21 20 18 17 18 20 22 22 21 18 17 15 16
11 8 9 15 10 9 10 5 4 6 5 7 5 7 3 5 4 4 8 6 7 6 7 7 7 11 14 14 14 17 22 23 20 19 19 19 18 17 17 18 18 19 20 21 21 21 21 20 19 18 19 18 20 19 19 19 18 18 18 18 17 17 16
6 11 8 13 12 12 9 9 8 2 4 2 5 3 7 7 4 5 4 6 6 6 7 10 12 11 13 16 17 18 19 21 23 21 20 19 19 17 17 17 18 19 20 20 20 20 19 19 18 17 17 20 19 17 18 19 20 19 19 18 18 16 15
9 9 5 9 14 14 12 13 13 11 8 5 9 10 1 3 4 4 4 11 6 9 4 9 11 10 11 14 17 19 21 22 20 20 20 19 18 18 18 18 18 19 18 18 18 17 14 14 15 17 18 17 17 19 19 19 18 18 20 19 17 16 15
10 6 8 11 17 15 15 13 11 10 5 5 4 8 5 0 5 6 5 3 10 8 5 7 10 8 9 11 15 18 19 20 20 20 20 19 20 20 19 19 18 17 16 17 17 18 17 19 19 20 18 18 19 20 19 18 19 20 19 19 17 16 15
12 9 5 6 12 18 16 15 13 12 11 8 8 6 5 5 2 5 2 6 8 6 5 6 7 5 9 10 15 17 13 14 18 20 20 21 18 19 20 19 17 16 15 14 13 14 15 15 15 17 18 18 18 17 18 18 20 20 19 17 17 16 16
7 14 8 6 3 8 10 11 13 15 12 11 4 4 2 4 7 6 6 15 5 4 2 5 9 4 3 5 5 8 15 16 18 20 18 17 19 19 18 17 17 15 12 12 14 16 17 16 16 17 18 17 17 17 17 19 19 19 18 16 17 17 17
14 14 16 12 12 14 9 6 15 15 18 14 7 10 4 6 4 5 5 6 6 6 3 10 14 17 6 3 3 7 9 12 13 13 16 17 18 17 18 17 15 14 13 14 15 16 16 17 17 17 17 17 17 17 19 18 16 16 17 16 17 17 17
15 12 2 4 8 4 12 7 11 16 17 17 14 5 7 14 3 5 8 3 2 5 5 6 12 18 13 9 3 4 5 9 15 18 17 16 15 17 19 18 16 13 12 16 17 17 17 18 17 17 18 18 17 17 17 17 16 17 17 16 16 17 17
16 15 15 7 8 11 13 10 12 15 17 17 15 12 13 6 6 14 4 5 4 8 7 8 13 14 8 8 6 7 9 10 12 10 10 12 12 13 13 13 15 16 16 17 17 17 17 17 17 17 17 18 18 18 18 18 17 16 14 16 17 18 18
19 16 19 17 7 7 11 15 13 17 19 17 17 15 6 11 10 15 6 7 8 6 7 9 11 13 7 5 8 9 10 8 2 1 6 9 14 14 15 15 14 15 16 16 17 17 17 17 17 17 16 15 15 14 15 15 15 17 17 16 17 17 17
20 17 18 19 17 8 6 12 13 17 20 21 20 16 10 13 8 7 9 9 11 8 7 8 10 9 5 7 5 6 6 13 12 10 9 12 15 16 17 17 17 17 17 16 16 16 15 16 17 16 15 15 16 16 16 17 17 17 16 17 18 18 19
17 20 17 18 20 13 11 9 12 15 18 21 21 16 11 10 7 4 7 9 11 8 6 7 8 5 3 1 6 6 6 7 14 15 14 15 17 17 17 17 17 16 16 16 16 16 16 16 17 16 16 16 16 16 15 16 17 16 16 17 17 18 19
11 16 21 20 18 15 10 8 9 11 15 16 14 14 8 7 6 6 6 7 8 9 8 7 6 5 5 5 4 3 5 5 5 9 13 16 17 15 13 11 10 9 11 13 15 16 16 16 16 15 15 15 15 16 16 17 18 16 16 17 18 18 18
7 14 17 21 17 14 13 17 16 8 6 7 9 13 14 12 11 9 7 9 8 12 10 10 7 6 6 4 5 4 4 5 8 6 7 8 8 9 10 9 9 12 14 14 15 16 15 16 16 17 17 15 16 17 18 19 16 15 18 18 19 18 17
7 10 19 11 10 13 17 3 10 11 11 10 5 3 7 10 9 6 11 13 10 7 6 9 9 5 3 4 3 4 2 7 6 7 11 13 13 13 14 15 16 15 12 11 12 14 15 15 17 18 16 18 19 19 19 16 16 17 18 18 18 18 17
6 8 11 13 17 14 4 3 7 13 12 10 8 2 3 3 5 1 3 2 3 6 10 10 6 5 5 7 12 11 10 5 3 10 11 9 9 10 11 12 13 14 17 15 14 14 15 17 17 15 14 15 15 15 14 15 17 19 18 18 17 17 17
3 4 4 13 10 3 1 3 3 5 9 9 12 6 3 4 5 2 3 3 3 2 0 2 6 17 13 15 12 11 10 7 4 2 3 2 2 5 6 8 10 11 10 13 16 17 16 14 12 13 16 17 16 15 14 16 17 18 18 18 18 16 17
5 3 5 4 0 1 2 1 2 3 4 9 12 6 1 4 5 1 9 4 5 3 1 2 1 7 15 14 11 12 11 11 10 8 6 2 4 4 5 8 8 7 9 11 13 12 13 14 15 16 17 17 17 16 15 16 16 16 16 17 17 17 18
2 4 3 2 4 6 5 3 3 2 5 9 14 11 1 7 6 3 3 7 3 3 3 3 0 2 11 7 4 9 11 9 9 8 9 11 9 5 5 4 5 6 11 9 8 8 11 12 14 14 14 13 13 13 14 14 14 15 16 18 18 17 18
5 4 4 4 5 5 6 2 3 7 10 16 8 11 2 3 4 5 2 7 4 4 5 4 6 6 5 1 1 4 6 8 9 8 9 7 4 4 8 6 5 5 6 7 11 11 8 9 11 9 8 10 12 14 14 14 15 15 17 18 17 18 18
3 4 4 3 1 2 4 3 1 4 8 9 8 6 4 2 4 3 4 8 5 4 5 10 12 8 7 1 2 3 4 3 5 9 11 11 11 10 10 10 8 6 6 4 3 5 9 14 12 10 9 9 11 13 14 14 16 18 18 19 19 19 18
7 5 3 1 1 3 11 13 17 13 1 7 5 7 8 2 2 3 5 8 6 6 9 7 10 3 3 2 1 3 4 8 11 9 7 6 7 10 10 9 10 9 7 4 8 9 5 3 5 2 3 11 14 14 14 13 15 18 18 18 16 15 14
6 6 3 4 2 3 13 21 19 12 2 5 6 3 2 7 7 6 8 10 9 11 11 9 8 5 4 3 2 6 9 7 6 9 9 10 10 8 5 7 9 7 7 7 2 1 4 7 7 7 4 0 4 4 7 14 18 18 17 14 12 12 13
5 6 4 2 4 5 22 25 13 7 2 4 8 10 7 6 9 10 9 9 6 8 10 8 7 6 7 7 7 7 8 9 10 11 12 11 10 10 12 13 11 7 5 6 7 7 8 3 3 7 7 8 8 6 4 5 6 6 4 8 11 13 13
2 3 4 3 4 11 17 13 1 3 3 6 8 11 11 5 7 8 9 8 7 7 10 8 9 7 6 8 7 7 10 11 10 9 11 11 10 11 10 9 9 9 6 5 5 4 4 3 3 0 8 8 6 5 5 4 5 4 3 4 6 9 11
0 0 4 6 10 9 10 11 7 9 11 9 10 12 10 10 7 5 9 8 7 8 10 11 9 10 10 10 10 10 10 10 11 11 12 12 11 11 11 10 10 8 8 8 8 9 9 9 6 2 1 6 5 8 5 4 8 9 10 10 8 8 11
4 5 7 7 7 12 15 13 11 10 8 8 11 14 13 8 8 7 10 7 8 7 6 11 9 9 8 10 10 11 10 10 10 9 9 10 10 10 9 10 11 7 6 9 10 10 11 10 8 8 7 0 5 4 4 5 6 6 7 8 10 11 10
1 2 6 5 7 13 13 12 13 14 13 9 8 13 12 11 10 11 9 10 10 9 9 11 10 8 7 8 7 7 7 8 9 10 9 9 9 9 9 8 7 6 6 9 10 10 11 9 8 7 5 6 7 6 2 3 1 7 9 9 10 10 9
1 1 2 3 3 7 10 10 11 11 12 12 9 10 10 11 10 11 10 10 10 8 11 8 11 9 6 7 7 8 8 9 9 9 9 9 8 8 7 7 5 4 6 8 9 9 8 7 7 6 6 5 4 4 3 2 3 2 1 8 11 13 15
2 2 2 1 3 8 13 15 13 11 9 7 7 6 9 11 13 12 11 10 10 11 11 9 11 13 9 8 7 10 9 10 10 10 10 9 8 7 8 7 6 6 5 7 6 7 5 4 5 5 7 5 2 2 2 1 1 2 7 7 6 6 7
1 2 1 1 1 2 5 8 11 13 14 11 6 4 5 7 10 11 14 11 10 12 10 10 11 12 9 8 9 11 11 11 11 11 11 10 9 8 7 6 5 3 3 4 5 5 3 2 3 4 4 5 4 3 2 3 1 4 7 10 12 11 11
2 1 3 2 6 6 3 6 8 12 13 11 8 6 6 6 5 5 11 13 13 12 9 8 12 11 10 8 9 12 11 11 10 11 11 12 11 10 8 6 7 6 6 5 5 6 5 4 5 5 5 5 6 8 6 7 7 2 7 11 11 12 13
4 1 3 3 2 6 5 7 9 10 8 8 7 7 7 6 6 6 9 9 12 9 8 8 8 10 9 8 11 11 10 10 11 11 12 12 12 11 11 9 7 8 7 7 8 8 6 6 6 6 6 6 7 7 8 9 15 15 10 9 12 17 14
3 2 1 2 5 7 5 7 8 6 4 3 4 6 8 7 7 7 9 8 6 7 8 8 6 6 10 9 10 11 10 10 9 10 12 13 14 14 13 14 12 8 6 6 5 5 6 6 7 7 7 5 4 6 6 8 12 11 10 11 12 12 12
Wind_Direction
229 222 194 205 163 205 211 157 208 207 96 185 226 302 271 159 184 246 199 291 295 298 321 258 212 197 198 196 202 200 196 190 188 192 192 191 191 191 190 191 191 191 192 193 193 192 191 191 189 190 188 187 187 185 186 189 189 186 188 189 189 191 192
232 225 218 218 194 146 157 203 212 135 130 131 176 212 271 221 205 258 220 232 279 231 258 247 201 210 203 196 196 196 190 191 191 196 196 193 191 191 191 190 190 190 191 193 195 193 191 190 191 190 189 188 187 185 186 186 186 188 190 189 191 191 191
231 226 219 246 230 179 192 196 181 178 202 200 249 123 218 211 223 254 265 233 224 197 233 274 189 200 206 196 195 190 190 194 198 199 198 198 192 188 191 192 191 192 193 194 194 194 194 193 190 189 188 185 185 188 187 186 187 188 187 189 191 192 191
213 213 183 220 223 227 205 129 210 179 133 198 161 208 146 139 238 191 268 204 240 209 203 202 222 209 201 192 189 193 195 198 200 200 198 198 196 193 192 193 193 193 195 195 194 194 193 191 190 190 185 185 187 187 185 189 190 188 187 189 189 191 192
203 225 191 208 192 199 207 209 192 221 214 222 163 211 174 186 179 187 190 240 255 245 204 192 220 198 202 193 193 198 201 202 202 198 197 198 197 194 192 194 195 196 197 196 196 195 192 189 187 183 183 188 188 184 187 187 187 188 190 190 189 192 189
221 232 198 185 194 196 203 198 210 192 150 157 183 244 4 154 164 213 181 249 274 263 189 189 206 218 196 206 199 200 203 203 200 200 200 197 197 197 195 195 195 198 196 194 195 195 189 180 180 184 188 187 184 188 189 187 187 189 190 190 191 189 189
237 222 239 197 194 197 200 197 211 189 166 134 162 210 275 295 239 156 155 213 259 240 207 208 220 208 206 203 203 204 202 203 201 201 199 198 196 195 198 200 201 198 191 190 190 186 182 183 184 186 185 186 190 191 186 187 189 192 190 190 188 186 187
266 245 255 276 218 195 203 210 201 185 201 188 178 166 189 180 254 220 243 236 255 274 203 227 234 196 199 208 200 206 213 209 202 196 197 197 197 198 197 199 201 198 194 187 180 182 184 186 184 185 187 191 192 188 187 187 193 190 189 188 186 186 187
236 263 265 270 260 224 213 202 200 201 194 175 174 148 115 210 215 180 158 234 261 283 251 229 271 195 166 195 234 209 198 204 201 198 195 193 194 196 196 197 197 195 186 175 181 184 185 186 185 186 188 190 188 190 188 191 194 188 188 185 186 187 187
207 210 222 213 208 213 222 203 194 201 196 181 137 210 172 215 256 158 207 249 257 272 259 201 233 259 252 300 211 170 210 205 199 194 193 195 195 193 194 194 192 189 180 182 184 185 187 185 184 186 188 190 191 190 192 192 187 186 188 187 187 185 187
211 221 197 228 147 162 215 204 197 197 199 190 192 169 176 216 169 204 223 172 239 244 230 239 215 245 252 260 232 154 184 212 200 189 190 193 192 195 195 193 192 185 180 185 188 188 187 187 186 186 187 189 190 191 192 189 188 187 186 186 186 187 189
207 198 213 211 168 190 202 195 197 197 199 194 192 190 219 119 126 239 205 190 190 242 241 224 230 236 241 242 236 198 172 179 186 200 204 194 196 200 197 197 191 185 187 189 189 189 188 190 190 188 189 189 189 189 189 189 187 185 187 188 187 188 188
210 198 211 217 199 194 198 199 190 195 200 197 200 208 183 152 193 223 203 195 201 244 235 233 233 237 213 231 218 217 186 164 112 140 184 203 208 203 194 197 193 190 190 191 191 189 191 189 189 190 190 191 190 190 189 187 185 188 187 188 189 189 190
210 205 205 219 213 197 196 208 198 193 195 203 205 205 190 180 204 186 180 191 209 208 227 221 239 254 216 228 215 214 200 172 167 163 175 199 212 206 201 199 195 195 194 191 190 188 188 188 190 190 189 190 190 190 190 187 189 191 185 189 189 190 194
214 207 205 209 220 193 203 205 210 201 198 201 203 207 201 192 220 193 195 204 231 247 222 219 238 230 236 125 135 176 184 184 171 168 186 207 211 207 206 202 198 195 193 191 188 185 188 190 191 190 192 193 192 192 189 188 192 190 186 189 192 194 199
229 208 203 207 217 218 192 208 210 208 200 198 202 208 189 166 195 200 182 210 235 263 255 246 231 220 193 171 167 195 183 165 164 180 198 206 200 199 203 207 206 207 199 191 186 187 188 189 190 191 193 192 189 192 190 192 194 187 187 190 194 198 200
263 212 201 205 206 223 237 222 210 180 195 220 208 203 192 197 183 184 196 224 211 213 216 219 228 195 221 170 173 178 213 189 158 172 182 181 197 197 192 194 199 196 195 195 192 190 187 188 191 196 192 187 192 195 193 197 188 184 190 194 197 199 197
281 235 187 180 195 214 227 222 160 174 192 180 192 235 226 232 193 200 202 215 206 206 209 194 223 180 218 214 278 351 257 192 187 183 179 184 190 187 190 191 190 191 195 196 196 191 189 192 194 197 190 190 197 197 196 189 183 190 193 197 197 198 194
264 277 139 164 204 218 244 248 177 180 174 167 171 105 4 304 260 252 26 352 287 238 199 182 167 138 121 73 62 52 38 347 255 187 182 187 184 187 192 201 200 192 184 185 190 195 198 198 199 194 193 199 202 200 192 187 190 191 196 196 197 196 195
282 263 199 187 203 219 273 328 285 155 152 157 108 40 352 345 336 178 109 189 134 121 133 184 145 123 97 64 44 32 13 31 48 351 306 276 174 187 200 187 196 185 196 200 194 199 204 203 199 192 195 198 196 198 193 192 193 195 195 196 198 195 196
241 241 220 196 239 38 2 65 46 144 154 156 152 122 277 293 317 226 146 155 133 154 176 216 189 145 92 71 33 5 4 2 2 11 24 352 267 251 223 185 192 220 206 200 207 208 204 200 198 198 201 198 196 193 189 195 195 197 195 198 199 196 198
156 182 209 138 148 172 247 241 254 243 147 123 128 106 349 320 346 359 122 125 146 117 92 34 342 78 66 48 31 343 343 356 3 10 13 359 349 313 269 282 288 221 201 208 220 212 203 204 204 204 201 195 194 191 192 193 195 199 198 201 201 198 199
300 246 183 205 166 230 212 190 200 131 121 120 94 79 77 277 317 331 58 84 67 81 89 60 73 71 84 200 292 322 330 343 6 15 4 360 11 357 322 290 247 248 253 220 208 193 192 211 214 204 196 192 187 191 192 193 194 197 203 206 202 200 200
230 219 181 213 195 148 251 187 232 183 143 114 81 97 223 269 341 340 59 70 64 68 67 82 67 91 127 339 307 314 338 357 24 24 5 357 357 5 10 7 329 265 223 192 269 262 216 208 201 184 177 180 191 197 200 195 194 198 203 207 205 204 201
303 262 240 159 4 16 3 358 341 312 143 83 134 194 201 185 74 23 67 67 57 64 60 56 91 41 95 120 20 347 348 27 22 21 29 12 349 353 4 2 352 351 315 223 206 209 219 330 353 325 207 187 189 199 200 197 203 206 208 208 205 203 197
322 291 185 199 144 132 7 343 324 297 190 183 172 212 138 119 90 61 61 74 59 70 73 83 95 110 84 93 49 30 29 41 28 23 16 13 9 5 353 6 16 0 1 341 316 194 177 157 144 131 114 2 288 274 233 207 205 207 208 202 196 197 194
295 317 320 73 117 328 347 330 321 22 84 210 153 115 83 86 94 83 64 64 58 75 81 75 88 79 60 52 41 34 31 32 29 23 23 19 11 358 353 357 358 9 20 17 13 4 354 359 125 145 144 161 164 155 185 245 281 297 257 199 194 195 195
296 310 6 31 322 305 321 329 296 340 35 114 112 113 93 63 71 82 81 56 55 68 84 77 59 53 57 46 41 43 35 28 23 28 26 21 14 6 2 354 349 359 9 11 23 31 33 45 11 358 150 151 155 164 190 158 141 149 185 222 199 193 193
248 247 271 315 332 318 326 339 344 58 66 74 90 87 93 96 65 62 80 67 54 56 77 64 50 49 39 35 31 41 36 36 32 26 23 23 16 10 2 353 355 6 17 22 21 17 10 356 357 11 79 150 158 175 186 169 151 164 173 175 184 194 188
224 213 231 287 330 339 343 348 7 16 54 74 87 94 92 67 84 76 90 84 65 57 47 80 57 58 49 48 40 39 36 33 28 26 25 20 17 12 10 8 4 6 26 42 41 35 23 14 5 348 338 12 182 199 188 163 139 129 139 162 176 180 185
357 352 296 17 5 329 352 359 8 25 14 15 67 86 87 96 91 88 82 91 90 82 77 78 86 60 42 57 50 44 43 36 29 27 21 16 11 10 12 359 354 14 40 53 50 44 36 21 13 9 17 18 2 351 315 312 246 158 157 162 165 161 162
122 232 244 301 69 337 357 9 14 20 24 17 21 77 95 99 97 95 102 102 93 96 84 91 88 80 57 58 47 44 38 34 30 26 25 17 9 5 4 0 5 34 51 62 60 57 49 23 11 13 13 8 7 22 16 8 357 347 174 179 175 171 158
267 262 233 192 59 45 1 2 8 8 20 25 13 36 91 102 102 100 92 90 99 92 93 87 85 76 59 53 56 55 43 36 29 24 20 16 13 7 6 2 28 56 52 62 70 75 60 23 20 16 359 349 355 82 64 21 350 162 139 120 104 112 100
230 161 224 181 131 65 19 14 1 2 2 6 15 357 48 76 95 103 100 88 82 84 81 80 77 79 66 48 48 54 47 39 31 27 23 20 19 16 12 6 4 35 66 91 86 65 48 47 53 26 5 358 352 342 31 38 141 221 167 143 131 125 123
206 354 38 73 117 110 67 62 29 25 8 356 1 16 23 26 43 79 98 97 82 77 73 74 84 80 72 55 54 56 46 40 38 34 31 29 25 21 15 24 22 22 13 15 26 39 27 20 15 8 10 7 14 23 10 48 60 277 226 156 125 114 113
290 285 63 76 99 116 91 56 55 46 26 350 342 20 30 26 20 40 62 71 93 90 81 72 79 91 82 69 62 60 46 38 38 38 37 37 33 30 27 31 34 34 28 21 21 21 12 12 10 4 29 30 29 24 40 47 71 64 18 309 117 110 99
233 109 106 56 96 112 119 108 84 68 41 342 338 11 27 23 19 21 57 63 54 79 85 79 60 77 96 84 73 64 57 39 29 46 49 44 41 37 33 31 27 21 22 23 22 12 15 31 35 39 39 30 30 13 26 66 82 77 71 77 62 69 88